FW0027 Weather Reports


time (UTC)temp
F
wind
direction
speed
knots
gust
knots
rain 1hr
in
rain 24hr
in
rain mn
in
humidity
%
barometer
mb
20260508125241 87 107 7.0 12.2 0.00 0.01 0.01 72 1012.2
20260508124502 86 92 6.1 12.2 0.00 0.01 0.01 72 1012.1
20260508124255 87 123 6.1 11.3 0.00 0.01 0.01 72 1012.0
20260508123255 87 109 7.0 11.3 0.00 0.01 0.01 72 1011.9
20260508123102 87 99 7.8 12.2 0.00 0.01 0.01 72 1012.0
20260508122258 87 123 6.1 10.4 0.00 0.01 0.01 71 1011.8
20260508121603 87 115 7.0 11.3 0.00 0.01 0.01 71 1011.7
20260508121317 88 96 6.1 10.4 0.00 0.01 0.01 70 1011.6
20260508120250 88 117 6.1 13.0 0.00 0.01 0.01 70 1011.5
20260508120005 87 107 6.1 12.2 0.00 0.01 0.01 70 1011.5
20260508115228 88 123 7.0 13.0 0.00 0.01 0.01 69 1011.4
20260508114604 88 113 7.0 13.0 0.00 0.01 0.01 69 1011.1
20260508114208 88 103 6.1 13.0 0.00 0.01 0.01 69 1011.1
20260508113230 88 110 7.8 12.2 0.00 0.01 0.01 68 1010.9
20260508113005 88 117 7.8 13.0 0.00 0.01 0.01 68 1011.0
20260508112220 89 96 7.0 12.2 0.00 0.01 0.01 67 1010.9
20260508111504 88 132 6.1 12.2 0.00 0.01 0.01 66 1010.9
20260508110103 89 136 7.0 13.9 0.00 0.01 0.01 64 1010.5
20260508110057 89 142 7.0 13.0 0.00 0.01 0.01 64 1010.5
20260508105025 89 134 6.1 11.3 0.00 0.01 0.01 65 1010.3
20260508104605 89 109 6.1 12.2 0.00 0.01 0.01 66 1010.4
20260508104033 89 113 6.1 16.5 0.00 0.01 0.01 67 1010.2
20260508103014 90 111 7.0 16.5 0.00 0.01 0.01 66 1010.0
20260508103003 89 109 7.8 17.4 0.00 0.01 0.01 66 1010.1
20260508101945 90 105 7.0 13.0 0.00 0.01 0.01 67 1009.9
20260508101503 89 111 8.7 13.9 0.00 0.01 0.01 67 1009.9
20260508101002 90 122 7.0 13.0 0.00 0.01 0.01 66 1009.9
20260508100105 90 138 7.0 13.0 0.00 0.01 0.01 66 1009.9
20260508095930 90 105 7.0 13.0 0.00 0.01 0.01 66 1009.9
20260508094915 91 126 7.0 13.0 0.00 0.01 0.01 65 1009.7
20260508094503 90 130 8.7 13.9 0.00 0.01 0.01 65 1009.3
20260508093935 91 111 7.8 13.0 0.00 0.01 0.01 65 1009.4
20260508093103 91 120 8.7 15.6 0.00 0.01 0.01 63 1009.3
20260508091734 92 133 7.8 16.5 0.00 0.01 0.01 64 1009.1
20260508091607 91 159 8.7 17.4 0.00 0.01 0.01 64 1009.1
20260508090730 92 110 7.8 16.5 0.00 0.01 0.01 63 1008.9
20260508084534 93 126 7.8 17.4 0.00 0.01 0.01 60 1008.9
20260508084503 93 125 7.0 18.2 0.00 0.01 0.01 59 1008.9
20260508083103 93 136 8.7 18.2 0.00 0.01 0.01 58 1008.6
20260508082433 93 134 8.7 17.4 0.00 0.01 0.01 58 1008.6
20260508081618 93 113 9.6 18.2 0.00 0.01 0.01 57 1008.7
20260508081403 94 109 8.7 17.4 0.00 0.01 0.01 56 1008.6
20260508080405 94 108 7.8 16.5 0.00 0.01 0.01 55 1008.5
20260508080003 94 119 7.0 17.4 0.00 0.01 0.01 56 1008.6
20260508075424 94 129 9.6 18.2 0.00 0.01 0.01 54 1008.5
20260508074607 94 126 9.6 17.4 0.00 0.01 0.01 53 1008.5
20260508074405 94 107 10.4 18.2 0.00 0.01 0.01 53 1008.4
20260508073410 95 96 8.7 16.5 0.00 0.01 0.01 52 1008.6
20260508073003 94 170 9.6 17.4 0.00 0.01 0.01 53 1008.7
20260508072429 94 136 10.4 20.9 0.00 0.01 0.01 53 1008.7
20260508071505 94 110 10.4 21.7 0.00 0.01 0.01 52 1008.6
20260508070215 95 0 8.7 19.1 0.00 0.01 0.01 52 1008.8
20260508070104 95 113 9.6 20.0 0.00 0.01 0.01 52 1008.9
20260508064511 95 116 9.6 18.2 0.00 0.01 0.01 51 1008.9
20260508064036 95 141 10.4 20.0 0.00 0.01 0.01 52 1008.9
20260508063103 95 103 10.4 20.9 0.00 0.01 0.01 52 1009.0
20260508063056 96 119 9.6 20.0 0.00 0.01 0.01 52 1008.9
20260508062110 95 128 9.6 20.0 0.00 0.01 0.01 52 1009.2
20260508061505 95 133 10.4 17.4 0.00 0.01 0.01 52 1009.3
20260508061128 95 171 9.6 19.1 0.00 0.01 0.01 52 1009.4
20260508060121 95 133 10.4 20.0 0.00 0.01 0.01 52 1009.4
20260508060110 95 115 13.0 20.0 0.00 0.01 0.01 52 1009.4
20260508054503 94 119 10.4 21.7 0.00 0.01 0.01 53 1009.6
20260508053116 94 120 12.2 20.0 0.00 0.01 0.01 51 1009.8
20260508052857 95 121 11.3 20.0 0.00 0.01 0.01 52 1009.8
20260508051905 95 138 10.4 20.0 0.00 0.01 0.01 53 1009.9
20260508051603 94 150 11.3 20.9 0.00 0.01 0.01 54 1010.1
20260508050906 95 122 9.6 20.0 0.00 0.01 0.01 55 1010.1
20260508050004 94 131 9.6 16.5 0.00 0.01 0.01 55 1010.4
20260508045844 95 116 8.7 20.0 0.00 0.01 0.01 55 1010.4
20260508044603 93 118 10.4 20.0 0.00 0.01 0.01 57 1010.7
20260508043712 94 143 9.6 17.4 0.00 0.01 0.01 58 1010.7
20260508043003 94 150 8.7 19.1 0.00 0.01 0.01 59 1010.7
20260508042654 94 152 11.3 19.1 0.00 0.01 0.01 58 1010.8
20260508041710 94 117 9.6 19.1 0.00 0.01 0.01 57 1010.9
20260508041504 94 149 9.6 20.0 0.00 0.01 0.01 58 1011.0
20260508040710 94 126 8.7 16.5 0.00 0.01 0.01 60 1011.1
20260508040108 93 128 10.4 17.4 0.00 0.01 0.01 60 1011.1
20260508035707 94 117 7.8 15.6 0.00 0.01 0.01 60 1011.1
20260508034509 92 123 8.7 16.5 0.00 0.01 0.01 63 1011.2
20260508033611 92 116 8.7 17.4 0.00 0.01 0.01 64 1011.2
20260508033102 92 136 10.4 18.2 0.00 0.01 0.01 64 1011.4
20260508032613 93 131 8.7 17.4 0.00 0.01 0.01 64 1011.5
20260508031607 92 119 9.6 15.6 0.00 0.01 0.01 64 1011.7
20260508031554 92 134 7.8 16.5 0.00 0.01 0.01 64 1011.6
20260508030538 92 152 7.8 16.5 0.00 0.01 0.01 65 1011.8
20260508030003 92 103 8.7 17.4 0.00 0.01 0.01 65 1011.9
20260508025558 92 149 7.0 13.0 0.00 0.01 0.01 65 1012.0
20260508024603 91 126 7.8 13.0 0.00 0.01 0.01 66 1012.0
20260508024525 92 115 7.0 14.8 0.00 0.01 0.01 67 1012.0
20260508023508 90 120 7.0 12.2 0.00 0.01 0.01 71 1012.2
20260508023004 88 123 6.1 13.0 0.00 0.01 0.01 74 1012.3
20260508022504 88 123 7.8 15.6 0.00 0.01 0.01 73 1012.3
20260508021505 89 113 7.0 15.6 0.00 0.01 0.01 73 1012.5
20260508021502 88 113 7.8 16.5 0.00 0.01 0.01 73 1012.5
20260508020521 89 118 6.1 14.8 0.00 0.01 0.01 72 1012.4
20260508015505 88 119 7.0 12.2 0.00 0.01 0.01 72 1012.6
20260508014504 88 116 7.0 11.3 0.00 0.01 0.01 72 1012.7
20260508014456 88 116 6.1 12.2 0.00 0.01 0.01 72 1012.6
20260508013433 89 111 7.0 12.2 0.00 0.01 0.01 71 1012.7
20260508013102 89 111 6.1 13.0 0.00 0.01 0.01 71 1012.6
20260508012439 89 105 7.0 13.0 0.00 0.01 0.01 71 1012.6
20260508011616 88 101 6.1 13.0 0.00 0.01 0.01 71 1012.8
20260508011434 89 107 7.8 13.0 0.00 0.01 0.01 71 1012.7
20260508010432 87 101 6.1 12.2 0.00 0.01 0.01 74 1012.8
20260508010007 87 101 7.0 13.0 0.00 0.01 0.01 73 1013.0
20260508005426 88 97 5.2 11.3 0.00 0.01 0.01 71 1013.0
20260508004602 88 93 5.2 12.2 0.00 0.01 0.01 69 1013.0
20260508004415 88 93 5.2 12.2 0.00 0.01 0.01 68 1013.0
20260508003434 89 101 7.0 12.2 0.00 0.01 0.01 68 1012.8
20260508003004 88 103 7.8 13.0 0.00 0.01 0.01 69 1012.8
20260508001502 88 82 3.5 9.6 0.00 0.01 0.01 72 1012.7
20260508001341 89 82 3.5 7.8 0.00 0.01 0.01 71 1012.7
20260508000335 88 78 3.5 6.1 0.00 0.01 0.01 73 1012.5
20260508000122 87 78 4.3 7.0 0.00 0.01 0.01 73 1012.6
20260507235309 87 78 3.5 8.7 0.00 0.01 0.01 73 1012.7
20260507234508 87 78 5.2 9.6 0.00 0.01 0.01 74 1012.7
20260507234257 87 78 3.5 8.7 0.00 0.01 0.01 74 1012.6
20260507233239 86 74 4.3 7.8 0.00 0.01 0.01 75 1012.5
20260507233104 86 74 5.2 8.7 0.00 0.01 0.01 75 1012.6
20260507232249 86 72 4.3 8.7 0.00 0.01 0.01 76 1012.3
20260507231615 85 69 2.6 9.6 0.00 0.01 0.01 77 1012.3
20260507231216 86 69 2.6 8.7 0.00 0.01 0.01 78 1012.2
20260507230241 85 67 2.6 7.8 0.00 0.01 0.01 80 1012.1
20260507230002 84 67 3.5 7.8 0.00 0.01 0.01 81 1012.2
20260507225217 84 67 3.5 7.8 0.00 0.01 0.01 83 1012.1
20260507224603 84 63 3.5 7.0 0.00 0.01 0.01 85 1012.3
20260507224201 84 63 3.5 6.1 0.00 0.01 0.01 85 1012.1
20260507223129 83 63 1.7 7.0 0.00 0.01 0.01 85 1012.0
20260507223004 83 63 1.7 6.1 0.00 0.01 0.01 85 1012.0
20260507222144 83 63 3.5 7.0 0.00 0.01 0.01 85 1011.9
20260507221503 82 63 5.2 7.8 0.00 0.01 0.01 85 1011.9
20260507221134 83 63 2.6 5.2 0.00 0.01 0.01 86 1011.8
20260507220149 83 63 0.9 4.3 0.00 0.01 0.01 86 1011.6
20260507215137 83 63 0.9 4.3 0.00 0.01 0.01 86 1011.5
20260507214506 82 63 1.7 5.2 0.00 0.01 0.01 85 1011.5
20260507213102 82 63 3.5 7.8 0.00 0.01 0.01 85 1011.3
20260507212956 83 63 3.5 7.0 0.00 0.01 0.01 85 1011.3
20260507211959 83 62 3.5 7.0 0.00 0.01 0.01 85 1011.2
20260507211504 82 62 3.5 7.8 0.00 0.01 0.01 85 1011.2
20260507210103 82 56 2.6 7.0 0.00 0.01 0.01 86 1011.1
20260507204647 82 56 1.7 6.1 0.00 0.01 0.01 87 1011.1
20260507204503 82 56 2.6 7.0 0.00 0.01 0.01 87 1011.2
20260507203621 82 54 0.0 3.5 0.00 0.01 0.01 87 1011.1
20260507203102 81 57 1.7 4.3 0.00 0.01 0.01 87 1011.2
20260507202558 82 60 0.0 0.9 0.00 0.01 0.01 87 1011.1
20260507201617 82 59 0.0 0.9 0.00 0.01 0.01 86 1011.0
20260507201603 81 59 0.0 3.5 0.01 0.01 0.01 86 1011.0
20260507200629 82 61 0.0 2.6 0.00 0.01 0.01 85 1011.0
20260507200004 82 59 0.0 2.6 0.01 0.01 0.01 85 1010.9
20260507194603 82 58 0.0 1.7 0.01 0.01 0.01 84 1010.8
20260507194459 83 58 0.0 0.9 0.00 0.01 0.01 84 1010.7
20260507193449 83 59 0.0 3.5 0.00 0.01 0.01 83 1010.7
20260507193003 83 59 1.7 4.3 0.01 0.01 0.01 82 1010.8
20260507192433 84 61 2.6 8.7 0.00 0.01 0.01 82 1010.7
20260507191504 84 67 4.3 9.6 0.00 0.00 0.00 79 1010.8
20260507191419 85 68 1.7 8.7 0.00 0.00 0.00 79 1010.7
20260507190439 85 103 3.5 7.8 0.00 0.00 0.00 78 1010.7
20260507190004 84 103 2.6 8.7 0.00 0.00 0.00 78 1010.6
20260507184603 84 103 4.3 9.6 0.00 0.00 0.00 78 1010.5
20260507184238 85 103 4.3 11.3 0.00 0.00 0.00 78 1010.5
20260507183237 85 105 6.1 11.3 0.00 0.00 0.00 78 1010.5
20260507183003 84 103 7.0 12.2 0.00 0.00 0.00 78 1010.5
20260507181503 84 110 3.5 9.6 0.00 0.00 0.00 78 1010.4
20260507181053 85 109 2.6 7.0 0.00 0.00 0.00 78 1010.3
20260507180109 84 108 2.6 7.8 0.00 0.00 0.00 78 1010.6
20260507174926 85 108 4.3 10.4 0.00 0.00 0.00 77 1010.5
20260507174508 84 107 5.2 9.6 0.00 0.00 0.00 77 1010.5
20260507173904 85 107 6.1 10.4 0.00 0.00 0.00 77 1010.4
20260507173104 84 116 5.2 11.3 0.00 0.00 0.00 77 1010.6
20260507171746 85 113 5.2 11.3 0.00 0.00 0.00 77 1010.6
20260507171626 84 107 5.2 12.2 0.00 0.00 0.00 77 1010.7
20260507170759 85 109 4.3 8.7 0.00 0.00 0.00 77 1010.7
20260507170003 84 113 4.3 8.7 0.00 0.00 0.00 76 1010.8
20260507165757 85 112 4.3 9.6 0.00 0.00 0.00 76 1010.7
20260507164757 85 111 5.2 11.3 0.00 0.00 0.00 76 1010.7
20260507164604 84 115 6.1 10.4 0.00 0.00 0.00 76 1010.8
20260507163736 85 102 6.1 12.2 0.00 0.00 0.00 76 1010.8
20260507163002 84 101 8.7 13.0 0.00 0.00 0.00 76 1010.9
20260507161524 85 105 5.2 12.2 0.00 0.00 0.00 76 1010.8
20260507161504 85 105 5.2 13.0 0.00 0.00 0.00 75 1010.8
20260507160519 85 136 7.0 12.2 0.00 0.00 0.00 75 1010.9
20260507160120 85 121 7.8 13.0 0.00 0.00 0.00 75 1010.8
20260507155522 85 103 7.0 13.0 0.00 0.00 0.00 75 1010.8
20260507154504 85 105 7.8 13.9 0.00 0.00 0.00 75 1011.0
20260507154500 85 104 7.8 14.8 0.00 0.00 0.00 75 1010.9
20260507153520 85 105 7.0 14.8 0.00 0.00 0.00 75 1011.0
20260507153102 85 148 8.7 13.0 0.00 0.00 0.00 75 1011.2
20260507151603 85 105 6.1 9.6 0.00 0.00 0.00 75 1011.2
20260507151311 85 107 6.1 13.0 0.00 0.00 0.00 75 1011.3
20260507150308 85 136 7.0 13.0 0.00 0.00 0.00 75 1011.5
20260507150003 85 106 7.0 13.9 0.00 0.00 0.00 75 1011.4
20260507145258 85 99 7.0 13.0 0.00 0.00 0.00 75 1011.3
20260507144604 85 107 5.2 13.9 0.00 0.00 0.00 75 1011.5
20260507144313 86 109 5.2 12.2 0.00 0.00 0.00 75 1011.4
20260507143323 86 107 6.1 12.2 0.00 0.00 0.00 74 1011.4
20260507143003 85 120 4.3 10.4 0.00 0.00 0.00 74 1011.4
20260507142317 86 105 5.2 9.6 0.00 0.00 0.00 74 1011.4
20260507141503 85 119 5.2 10.4 0.00 0.00 0.00 74 1011.6
20260507141335 86 121 4.3 9.6 0.00 0.00 0.00 74 1011.5
20260507140341 86 112 6.1 10.4 0.00 0.00 0.00 74 1011.3
20260507140115 85 115 6.1 11.3 0.00 0.00 0.00 73 1011.5
20260507135337 86 100 6.1 13.0 0.00 0.00 0.00 73 1011.4
20260507134504 86 105 6.1 13.9 0.00 0.00 0.00 73 1011.5
20260507134323 86 122 6.1 13.0 0.00 0.00 0.00 72 1011.5
20260507133107 86 95 7.0 13.9 0.00 0.00 0.00 72 1011.3
20260507132125 86 97 6.1 10.4 0.00 0.00 0.00 73 1011.3
20260507131623 86 139 6.1 13.0 0.00 0.00 0.00 73 1011.2
20260507131107 86 109 7.0 12.2 0.00 0.00 0.00 73 1011.2
20260507130122 87 121 7.0 12.2 0.00 0.00 0.00 73 1011.1
20260507130003 86 115 8.7 13.0 0.00 0.00 0.00 73 1011.1